Index of /20260427/WXO-DD/model_rdps/10km/12/034
Name Last modified Size Description
Parent Directory -
20260427T12Z_MSC_RDPS_AbsoluteVorticity_IsbL-0250_RLatLon0.09_PT034H.grib2 2026-04-27 14:50 517K
20260427T12Z_MSC_RDPS_AbsoluteVorticity_IsbL-0500_RLatLon0.09_PT034H.grib2 2026-04-27 14:50 577K
20260427T12Z_MSC_RDPS_AbsoluteVorticity_IsbL-0700_RLatLon0.09_PT034H.grib2 2026-04-27 14:50 619K
20260427T12Z_MSC_RDPS_AbsoluteVorticity_IsbL-0850_RLatLon0.09_PT034H.grib2 2026-04-27 14:50 779K
20260427T12Z_MSC_RDPS_AirTemp_AGL-120m_RLatLon0.09_PT034H.grib2 2026-04-27 14:50 393K
20260427T12Z_MSC_RDPS_AirTemp_AGL-2m_RLatLon0.09_PT034H.grib2 2026-04-27 14:50 627K
20260427T12Z_MSC_RDPS_AirTemp_AGL-40m_RLatLon0.09_PT034H.grib2 2026-04-27 14:50 402K
20260427T12Z_MSC_RDPS_AirTemp_AGL-80m_RLatLon0.09_PT034H.grib2 2026-04-27 14:50 396K
20260427T12Z_MSC_RDPS_AirTemp_IsbL-0001_RLatLon0.09_PT034H.grib2 2026-04-27 14:50 320K
20260427T12Z_MSC_RDPS_AirTemp_IsbL-0005_RLatLon0.09_PT034H.grib2 2026-04-27 14:50 338K
20260427T12Z_MSC_RDPS_AirTemp_IsbL-0010_RLatLon0.09_PT034H.grib2 2026-04-27 14:50 310K
20260427T12Z_MSC_RDPS_AirTemp_IsbL-0020_RLatLon0.09_PT034H.grib2 2026-04-27 14:50 324K
20260427T12Z_MSC_RDPS_AirTemp_IsbL-0030_RLatLon0.09_PT034H.grib2 2026-04-27 14:50 345K
20260427T12Z_MSC_RDPS_AirTemp_IsbL-0050_RLatLon0.09_PT034H.grib2 2026-04-27 14:50 320K
20260427T12Z_MSC_RDPS_AirTemp_IsbL-0100_RLatLon0.09_PT034H.grib2 2026-04-27 14:50 436K
20260427T12Z_MSC_RDPS_AirTemp_IsbL-0150_RLatLon0.09_PT034H.grib2 2026-04-27 14:50 437K
20260427T12Z_MSC_RDPS_AirTemp_IsbL-0175_RLatLon0.09_PT034H.grib2 2026-04-27 14:50 428K
20260427T12Z_MSC_RDPS_AirTemp_IsbL-0200_RLatLon0.09_PT034H.grib2 2026-04-27 14:50 430K
20260427T12Z_MSC_RDPS_AirTemp_IsbL-0225_RLatLon0.09_PT034H.grib2 2026-04-27 14:50 430K
20260427T12Z_MSC_RDPS_AirTemp_IsbL-0250_RLatLon0.09_PT034H.grib2 2026-04-27 14:50 439K
20260427T12Z_MSC_RDPS_AirTemp_IsbL-0275_RLatLon0.09_PT034H.grib2 2026-04-27 14:50 418K
20260427T12Z_MSC_RDPS_AirTemp_IsbL-0300_RLatLon0.09_PT034H.grib2 2026-04-27 14:50 424K
20260427T12Z_MSC_RDPS_AirTemp_IsbL-0350_RLatLon0.09_PT034H.grib2 2026-04-27 14:50 434K
20260427T12Z_MSC_RDPS_AirTemp_IsbL-0400_RLatLon0.09_PT034H.grib2 2026-04-27 14:50 434K
20260427T12Z_MSC_RDPS_AirTemp_IsbL-0450_RLatLon0.09_PT034H.grib2 2026-04-27 14:50 405K
20260427T12Z_MSC_RDPS_AirTemp_IsbL-0500_RLatLon0.09_PT034H.grib2 2026-04-27 14:50 415K
20260427T12Z_MSC_RDPS_AirTemp_IsbL-0550_RLatLon0.09_PT034H.grib2 2026-04-27 14:50 435K
20260427T12Z_MSC_RDPS_AirTemp_IsbL-0600_RLatLon0.09_PT034H.grib2 2026-04-27 14:50 450K
20260427T12Z_MSC_RDPS_AirTemp_IsbL-0650_RLatLon0.09_PT034H.grib2 2026-04-27 14:50 466K
20260427T12Z_MSC_RDPS_AirTemp_IsbL-0700_RLatLon0.09_PT034H.grib2 2026-04-27 14:50 491K
20260427T12Z_MSC_RDPS_AirTemp_IsbL-0750_RLatLon0.09_PT034H.grib2 2026-04-27 14:50 416K
20260427T12Z_MSC_RDPS_AirTemp_IsbL-0800_RLatLon0.09_PT034H.grib2 2026-04-27 14:50 457K
20260427T12Z_MSC_RDPS_AirTemp_IsbL-0850_RLatLon0.09_PT034H.grib2 2026-04-27 14:50 502K
20260427T12Z_MSC_RDPS_AirTemp_IsbL-0875_RLatLon0.09_PT034H.grib2 2026-04-27 14:50 521K
20260427T12Z_MSC_RDPS_AirTemp_IsbL-0900_RLatLon0.09_PT034H.grib2 2026-04-27 14:50 528K
20260427T12Z_MSC_RDPS_AirTemp_IsbL-0925_RLatLon0.09_PT034H.grib2 2026-04-27 14:50 537K
20260427T12Z_MSC_RDPS_AirTemp_IsbL-0950_RLatLon0.09_PT034H.grib2 2026-04-27 14:50 538K
20260427T12Z_MSC_RDPS_AirTemp_IsbL-0970_RLatLon0.09_PT034H.grib2 2026-04-27 14:50 532K
20260427T12Z_MSC_RDPS_AirTemp_IsbL-0985_RLatLon0.09_PT034H.grib2 2026-04-27 14:50 523K
20260427T12Z_MSC_RDPS_AirTemp_IsbL-1000_RLatLon0.09_PT034H.grib2 2026-04-27 14:50 509K
20260427T12Z_MSC_RDPS_AirTemp_IsbL-1015_RLatLon0.09_PT034H.grib2 2026-04-27 14:50 507K
20260427T12Z_MSC_RDPS_Albedo_Sfc_RLatLon0.09_PT034H.grib2 2026-04-27 14:50 159K
20260427T12Z_MSC_RDPS_CAPE_Sfc_RLatLon0.09_PT034H.grib2 2026-04-27 14:50 1.8M
20260427T12Z_MSC_RDPS_CIN_Sfc_RLatLon0.09_PT034H.grib2 2026-04-27 14:50 1.2M
20260427T12Z_MSC_RDPS_CloudWater_EAtm_RLatLon0.09_PT034H.grib2 2026-04-27 14:50 224K
20260427T12Z_MSC_RDPS_ConvectivePrecip-Accum_Sfc_RLatLon0.09_PT034H.grib2 2026-04-27 14:50 1.0M
20260427T12Z_MSC_RDPS_DewPointDepression_AGL-2m_RLatLon0.09_PT034H.grib2 2026-04-27 14:50 416K
20260427T12Z_MSC_RDPS_DewPointDepression_IsbL-0001_RLatLon0.09_PT034H.grib2 2026-04-27 14:50 193
20260427T12Z_MSC_RDPS_DewPointDepression_IsbL-0005_RLatLon0.09_PT034H.grib2 2026-04-27 14:50 193
20260427T12Z_MSC_RDPS_DewPointDepression_IsbL-0010_RLatLon0.09_PT034H.grib2 2026-04-27 14:50 193
20260427T12Z_MSC_RDPS_DewPointDepression_IsbL-0020_RLatLon0.09_PT034H.grib2 2026-04-27 14:50 193
20260427T12Z_MSC_RDPS_DewPointDepression_IsbL-0030_RLatLon0.09_PT034H.grib2 2026-04-27 14:50 193
20260427T12Z_MSC_RDPS_DewPointDepression_IsbL-0050_RLatLon0.09_PT034H.grib2 2026-04-27 14:50 96K
20260427T12Z_MSC_RDPS_DewPointDepression_IsbL-0100_RLatLon0.09_PT034H.grib2 2026-04-27 14:50 132K
20260427T12Z_MSC_RDPS_DewPointDepression_IsbL-0150_RLatLon0.09_PT034H.grib2 2026-04-27 14:50 152K
20260427T12Z_MSC_RDPS_DewPointDepression_IsbL-0175_RLatLon0.09_PT034H.grib2 2026-04-27 14:50 184K
20260427T12Z_MSC_RDPS_DewPointDepression_IsbL-0200_RLatLon0.09_PT034H.grib2 2026-04-27 14:50 222K
20260427T12Z_MSC_RDPS_DewPointDepression_IsbL-0225_RLatLon0.09_PT034H.grib2 2026-04-27 14:50 270K
20260427T12Z_MSC_RDPS_DewPointDepression_IsbL-0250_RLatLon0.09_PT034H.grib2 2026-04-27 14:50 311K
20260427T12Z_MSC_RDPS_DewPointDepression_IsbL-0275_RLatLon0.09_PT034H.grib2 2026-04-27 14:50 315K
20260427T12Z_MSC_RDPS_DewPointDepression_IsbL-0300_RLatLon0.09_PT034H.grib2 2026-04-27 14:50 332K
20260427T12Z_MSC_RDPS_DewPointDepression_IsbL-0350_RLatLon0.09_PT034H.grib2 2026-04-27 14:50 339K
20260427T12Z_MSC_RDPS_DewPointDepression_IsbL-0400_RLatLon0.09_PT034H.grib2 2026-04-27 14:50 350K
20260427T12Z_MSC_RDPS_DewPointDepression_IsbL-0450_RLatLon0.09_PT034H.grib2 2026-04-27 14:50 361K
20260427T12Z_MSC_RDPS_DewPointDepression_IsbL-0500_RLatLon0.09_PT034H.grib2 2026-04-27 14:50 367K
20260427T12Z_MSC_RDPS_DewPointDepression_IsbL-0550_RLatLon0.09_PT034H.grib2 2026-04-27 14:50 378K
20260427T12Z_MSC_RDPS_DewPointDepression_IsbL-0600_RLatLon0.09_PT034H.grib2 2026-04-27 14:50 387K
20260427T12Z_MSC_RDPS_DewPointDepression_IsbL-0650_RLatLon0.09_PT034H.grib2 2026-04-27 14:50 391K
20260427T12Z_MSC_RDPS_DewPointDepression_IsbL-0700_RLatLon0.09_PT034H.grib2 2026-04-27 14:50 405K
20260427T12Z_MSC_RDPS_DewPointDepression_IsbL-0750_RLatLon0.09_PT034H.grib2 2026-04-27 14:50 426K
20260427T12Z_MSC_RDPS_DewPointDepression_IsbL-0800_RLatLon0.09_PT034H.grib2 2026-04-27 14:50 454K
20260427T12Z_MSC_RDPS_DewPointDepression_IsbL-0850_RLatLon0.09_PT034H.grib2 2026-04-27 14:50 475K
20260427T12Z_MSC_RDPS_DewPointDepression_IsbL-0875_RLatLon0.09_PT034H.grib2 2026-04-27 14:50 475K
20260427T12Z_MSC_RDPS_DewPointDepression_IsbL-0900_RLatLon0.09_PT034H.grib2 2026-04-27 14:50 467K
20260427T12Z_MSC_RDPS_DewPointDepression_IsbL-0925_RLatLon0.09_PT034H.grib2 2026-04-27 14:50 456K
20260427T12Z_MSC_RDPS_DewPointDepression_IsbL-0950_RLatLon0.09_PT034H.grib2 2026-04-27 14:50 445K
20260427T12Z_MSC_RDPS_DewPointDepression_IsbL-0970_RLatLon0.09_PT034H.grib2 2026-04-27 14:50 435K
20260427T12Z_MSC_RDPS_DewPointDepression_IsbL-0985_RLatLon0.09_PT034H.grib2 2026-04-27 14:50 429K
20260427T12Z_MSC_RDPS_DewPointDepression_IsbL-1000_RLatLon0.09_PT034H.grib2 2026-04-27 14:50 426K
20260427T12Z_MSC_RDPS_DewPointDepression_IsbL-1015_RLatLon0.09_PT034H.grib2 2026-04-27 14:50 419K
20260427T12Z_MSC_RDPS_DewPoint_AGL-2m_RLatLon0.09_PT034H.grib2 2026-04-27 14:50 311K
20260427T12Z_MSC_RDPS_DownwardLongwaveRadiationFlux-Accum_Sfc_RLatLon0.09_PT034H.grib2 2026-04-27 14:50 496K
20260427T12Z_MSC_RDPS_DownwardShortwaveRadiationFlux-Accum_NTAtm_RLatLon0.09_PT034H.grib2 2026-04-27 14:50 100K
20260427T12Z_MSC_RDPS_DownwardShortwaveRadiationFlux-Accum_Sfc_RLatLon0.09_PT034H.grib2 2026-04-27 14:50 532K
20260427T12Z_MSC_RDPS_FreezingRain-Accum1h_Sfc_RLatLon0.09_PT034H.grib2 2026-04-27 14:50 15K
20260427T12Z_MSC_RDPS_FreezingRain-Accum_Sfc_RLatLon0.09_PT034H.grib2 2026-04-27 14:50 117K
20260427T12Z_MSC_RDPS_GeopotentialHeight_IsbL-0001_RLatLon0.09_PT034H.grib2 2026-04-27 14:50 278K
20260427T12Z_MSC_RDPS_GeopotentialHeight_IsbL-0005_RLatLon0.09_PT034H.grib2 2026-04-27 14:50 317K
20260427T12Z_MSC_RDPS_GeopotentialHeight_IsbL-0010_RLatLon0.09_PT034H.grib2 2026-04-27 14:50 346K
20260427T12Z_MSC_RDPS_GeopotentialHeight_IsbL-0020_RLatLon0.09_PT034H.grib2 2026-04-27 14:50 312K
20260427T12Z_MSC_RDPS_GeopotentialHeight_IsbL-0030_RLatLon0.09_PT034H.grib2 2026-04-27 14:50 313K
20260427T12Z_MSC_RDPS_GeopotentialHeight_IsbL-0050_RLatLon0.09_PT034H.grib2 2026-04-27 14:50 347K
20260427T12Z_MSC_RDPS_GeopotentialHeight_IsbL-0100_RLatLon0.09_PT034H.grib2 2026-04-27 14:50 294K
20260427T12Z_MSC_RDPS_GeopotentialHeight_IsbL-0150_RLatLon0.09_PT034H.grib2 2026-04-27 14:50 234K
20260427T12Z_MSC_RDPS_GeopotentialHeight_IsbL-0175_RLatLon0.09_PT034H.grib2 2026-04-27 14:50 269K
20260427T12Z_MSC_RDPS_GeopotentialHeight_IsbL-0200_RLatLon0.09_PT034H.grib2 2026-04-27 14:50 271K
20260427T12Z_MSC_RDPS_GeopotentialHeight_IsbL-0225_RLatLon0.09_PT034H.grib2 2026-04-27 14:50 272K
20260427T12Z_MSC_RDPS_GeopotentialHeight_IsbL-0250_RLatLon0.09_PT034H.grib2 2026-04-27 14:50 273K
20260427T12Z_MSC_RDPS_GeopotentialHeight_IsbL-0275_RLatLon0.09_PT034H.grib2 2026-04-27 14:50 271K
20260427T12Z_MSC_RDPS_GeopotentialHeight_IsbL-0300_RLatLon0.09_PT034H.grib2 2026-04-27 14:50 270K
20260427T12Z_MSC_RDPS_GeopotentialHeight_IsbL-0350_RLatLon0.09_PT034H.grib2 2026-04-27 14:50 236K
20260427T12Z_MSC_RDPS_GeopotentialHeight_IsbL-0400_RLatLon0.09_PT034H.grib2 2026-04-27 14:50 232K
20260427T12Z_MSC_RDPS_GeopotentialHeight_IsbL-0450_RLatLon0.09_PT034H.grib2 2026-04-27 14:50 301K
20260427T12Z_MSC_RDPS_GeopotentialHeight_IsbL-0500_RLatLon0.09_PT034H.grib2 2026-04-27 14:50 296K
20260427T12Z_MSC_RDPS_GeopotentialHeight_IsbL-0550_RLatLon0.09_PT034H.grib2 2026-04-27 14:50 293K
20260427T12Z_MSC_RDPS_GeopotentialHeight_IsbL-0600_RLatLon0.09_PT034H.grib2 2026-04-27 14:50 290K
20260427T12Z_MSC_RDPS_GeopotentialHeight_IsbL-0650_RLatLon0.09_PT034H.grib2 2026-04-27 14:50 259K
20260427T12Z_MSC_RDPS_GeopotentialHeight_IsbL-0700_RLatLon0.09_PT034H.grib2 2026-04-27 14:50 258K
20260427T12Z_MSC_RDPS_GeopotentialHeight_IsbL-0750_RLatLon0.09_PT034H.grib2 2026-04-27 14:50 342K
20260427T12Z_MSC_RDPS_GeopotentialHeight_IsbL-0800_RLatLon0.09_PT034H.grib2 2026-04-27 14:50 348K
20260427T12Z_MSC_RDPS_GeopotentialHeight_IsbL-0850_RLatLon0.09_PT034H.grib2 2026-04-27 14:50 356K
20260427T12Z_MSC_RDPS_GeopotentialHeight_IsbL-0875_RLatLon0.09_PT034H.grib2 2026-04-27 14:50 358K
20260427T12Z_MSC_RDPS_GeopotentialHeight_IsbL-0900_RLatLon0.09_PT034H.grib2 2026-04-27 14:50 364K
20260427T12Z_MSC_RDPS_GeopotentialHeight_IsbL-0925_RLatLon0.09_PT034H.grib2 2026-04-27 14:50 402K
20260427T12Z_MSC_RDPS_GeopotentialHeight_IsbL-0950_RLatLon0.09_PT034H.grib2 2026-04-27 14:50 405K
20260427T12Z_MSC_RDPS_GeopotentialHeight_IsbL-0970_RLatLon0.09_PT034H.grib2 2026-04-27 14:50 411K
20260427T12Z_MSC_RDPS_GeopotentialHeight_IsbL-0985_RLatLon0.09_PT034H.grib2 2026-04-27 14:50 420K
20260427T12Z_MSC_RDPS_GeopotentialHeight_IsbL-1000_RLatLon0.09_PT034H.grib2 2026-04-27 14:50 399K
20260427T12Z_MSC_RDPS_GeopotentialHeight_IsbL-1015_RLatLon0.09_PT034H.grib2 2026-04-27 14:50 413K
20260427T12Z_MSC_RDPS_Humidex_Sfc_RLatLon0.09_PT034H.grib2 2026-04-27 14:50 2.4M
20260427T12Z_MSC_RDPS_IcePellets-Accum1h_Sfc_RLatLon0.09_PT034H.grib2 2026-04-27 14:50 6.1K
20260427T12Z_MSC_RDPS_IcePellets-Accum_Sfc_RLatLon0.09_PT034H.grib2 2026-04-27 14:50 17K
20260427T12Z_MSC_RDPS_KIndex_Sfc_RLatLon0.09_PT034H.grib2 2026-04-27 14:50 2.5M
20260427T12Z_MSC_RDPS_LatentHeatNetFlux_Sfc_RLatLon0.09_PT034H.grib2 2026-04-27 14:50 294K
20260427T12Z_MSC_RDPS_LiftedIndex-MU-VT_IsbL-0500_RLatLon0.09_PT034H.grib2 2026-04-27 14:50 2.4M
20260427T12Z_MSC_RDPS_NetLongwaveRadiationFlux-Accum_Sfc_RLatLon0.09_PT034H.grib2 2026-04-27 14:50 505K
20260427T12Z_MSC_RDPS_NetShortwaveRadiationFlux-Accum_Sfc_RLatLon0.09_PT034H.grib2 2026-04-27 14:50 577K
20260427T12Z_MSC_RDPS_PlanetaryBoundaryLayerHeight_Sfc_RLatLon0.09_PT034H.grib2 2026-04-27 14:50 1.0M
20260427T12Z_MSC_RDPS_Precip-Accum1h_Sfc_RLatLon0.09_PT034H.grib2 2026-04-27 14:50 1.2M
20260427T12Z_MSC_RDPS_Precip-Accum_Sfc_RLatLon0.09_PT034H.grib2 2026-04-27 14:50 1.9M
20260427T12Z_MSC_RDPS_PrecipRate_Sfc_RLatLon0.09_PT034H.grib2 2026-04-27 14:50 135K
20260427T12Z_MSC_RDPS_PrecipType-Instant_Sfc_RLatLon0.09_PT034H.grib2 2026-04-27 14:50 569K
20260427T12Z_MSC_RDPS_Pressure-Trend3h_Sfc_RLatLon0.09_PT034H.grib2 2026-04-27 14:50 1.2M
20260427T12Z_MSC_RDPS_Pressure_MSL_RLatLon0.09_PT034H.grib2 2026-04-27 14:50 331K
20260427T12Z_MSC_RDPS_Pressure_PVU-1.5_RLatLon0.09_PT034H.grib2 2026-04-27 14:50 2.5M
20260427T12Z_MSC_RDPS_Pressure_PVU-1_RLatLon0.09_PT034H.grib2 2026-04-27 14:50 2.4M
20260427T12Z_MSC_RDPS_Pressure_PVU-2_RLatLon0.09_PT034H.grib2 2026-04-27 14:50 2.4M
20260427T12Z_MSC_RDPS_Pressure_Sfc_RLatLon0.09_PT034H.grib2 2026-04-27 14:50 500K
20260427T12Z_MSC_RDPS_RadiativeTemp_Sfc_RLatLon0.09_PT034H.grib2 2026-04-27 14:50 321K
20260427T12Z_MSC_RDPS_Rain-Accum1h_Sfc_RLatLon0.09_PT034H.grib2 2026-04-27 14:50 546K
20260427T12Z_MSC_RDPS_Rain-Accum_Sfc_RLatLon0.09_PT034H.grib2 2026-04-27 14:50 1.5M
20260427T12Z_MSC_RDPS_RelativeHumidity_AGL-2m_RLatLon0.09_PT034H.grib2 2026-04-27 14:50 1.0M
20260427T12Z_MSC_RDPS_RelativeHumidity_IsbL-0010_RLatLon0.09_PT034H.grib2 2026-04-27 14:50 623K
20260427T12Z_MSC_RDPS_RelativeHumidity_IsbL-0020_RLatLon0.09_PT034H.grib2 2026-04-27 14:50 648K
20260427T12Z_MSC_RDPS_RelativeHumidity_IsbL-0030_RLatLon0.09_PT034H.grib2 2026-04-27 14:50 611K
20260427T12Z_MSC_RDPS_RelativeHumidity_IsbL-0050_RLatLon0.09_PT034H.grib2 2026-04-27 14:50 251K
20260427T12Z_MSC_RDPS_RelativeHumidity_IsbL-0100_RLatLon0.09_PT034H.grib2 2026-04-27 14:50 285K
20260427T12Z_MSC_RDPS_RelativeHumidity_IsbL-0150_RLatLon0.09_PT034H.grib2 2026-04-27 14:50 423K
20260427T12Z_MSC_RDPS_RelativeHumidity_IsbL-0175_RLatLon0.09_PT034H.grib2 2026-04-27 14:50 493K
20260427T12Z_MSC_RDPS_RelativeHumidity_IsbL-0200_RLatLon0.09_PT034H.grib2 2026-04-27 14:50 561K
20260427T12Z_MSC_RDPS_RelativeHumidity_IsbL-0225_RLatLon0.09_PT034H.grib2 2026-04-27 14:50 630K
20260427T12Z_MSC_RDPS_RelativeHumidity_IsbL-0250_RLatLon0.09_PT034H.grib2 2026-04-27 14:50 699K
20260427T12Z_MSC_RDPS_RelativeHumidity_IsbL-0275_RLatLon0.09_PT034H.grib2 2026-04-27 14:50 728K
20260427T12Z_MSC_RDPS_RelativeHumidity_IsbL-0300_RLatLon0.09_PT034H.grib2 2026-04-27 14:50 771K
20260427T12Z_MSC_RDPS_RelativeHumidity_IsbL-0350_RLatLon0.09_PT034H.grib2 2026-04-27 14:50 792K
20260427T12Z_MSC_RDPS_RelativeHumidity_IsbL-0400_RLatLon0.09_PT034H.grib2 2026-04-27 14:50 806K
20260427T12Z_MSC_RDPS_RelativeHumidity_IsbL-0450_RLatLon0.09_PT034H.grib2 2026-04-27 14:50 812K
20260427T12Z_MSC_RDPS_RelativeHumidity_IsbL-0500_RLatLon0.09_PT034H.grib2 2026-04-27 14:50 818K
20260427T12Z_MSC_RDPS_RelativeHumidity_IsbL-0550_RLatLon0.09_PT034H.grib2 2026-04-27 14:50 835K
20260427T12Z_MSC_RDPS_RelativeHumidity_IsbL-0600_RLatLon0.09_PT034H.grib2 2026-04-27 14:50 851K
20260427T12Z_MSC_RDPS_RelativeHumidity_IsbL-0650_RLatLon0.09_PT034H.grib2 2026-04-27 14:50 874K
20260427T12Z_MSC_RDPS_RelativeHumidity_IsbL-0700_RLatLon0.09_PT034H.grib2 2026-04-27 14:50 895K
20260427T12Z_MSC_RDPS_RelativeHumidity_IsbL-0750_RLatLon0.09_PT034H.grib2 2026-04-27 14:50 933K
20260427T12Z_MSC_RDPS_RelativeHumidity_IsbL-0800_RLatLon0.09_PT034H.grib2 2026-04-27 14:50 1.0M
20260427T12Z_MSC_RDPS_RelativeHumidity_IsbL-0850_RLatLon0.09_PT034H.grib2 2026-04-27 14:50 1.0M
20260427T12Z_MSC_RDPS_RelativeHumidity_IsbL-0875_RLatLon0.09_PT034H.grib2 2026-04-27 14:50 1.1M
20260427T12Z_MSC_RDPS_RelativeHumidity_IsbL-0900_RLatLon0.09_PT034H.grib2 2026-04-27 14:50 1.1M
20260427T12Z_MSC_RDPS_RelativeHumidity_IsbL-0925_RLatLon0.09_PT034H.grib2 2026-04-27 14:50 1.1M
20260427T12Z_MSC_RDPS_RelativeHumidity_IsbL-0950_RLatLon0.09_PT034H.grib2 2026-04-27 14:50 1.1M
20260427T12Z_MSC_RDPS_RelativeHumidity_IsbL-0970_RLatLon0.09_PT034H.grib2 2026-04-27 14:50 1.0M
20260427T12Z_MSC_RDPS_RelativeHumidity_IsbL-0985_RLatLon0.09_PT034H.grib2 2026-04-27 14:50 1.0M
20260427T12Z_MSC_RDPS_RelativeHumidity_IsbL-1000_RLatLon0.09_PT034H.grib2 2026-04-27 14:50 1.0M
20260427T12Z_MSC_RDPS_RelativeHumidity_IsbL-1015_RLatLon0.09_PT034H.grib2 2026-04-27 14:50 1.0M
20260427T12Z_MSC_RDPS_Runoff-Accum_Sfc_RLatLon0.09_PT034H.grib2 2026-04-27 14:50 58K
20260427T12Z_MSC_RDPS_SWEATIndex_Sfc_RLatLon0.09_PT034H.grib2 2026-04-27 14:50 2.4M
20260427T12Z_MSC_RDPS_SeeingIndex_EAtm_RLatLon0.09_PT034H.grib2 2026-04-27 14:50 1.0M
20260427T12Z_MSC_RDPS_SensibleHeatNetFlux_Sfc_RLatLon0.09_PT034H.grib2 2026-04-27 14:50 350K
20260427T12Z_MSC_RDPS_ShowalterIndex_IsbL-0500_RLatLon0.09_PT034H.grib2 2026-04-27 14:50 2.6M
20260427T12Z_MSC_RDPS_SkyTransparencyIndex_EAtm_RLatLon0.09_PT034H.grib2 2026-04-27 14:50 702K
20260427T12Z_MSC_RDPS_Snow-Accum1h_Sfc_RLatLon0.09_PT034H.grib2 2026-04-27 14:50 546K
20260427T12Z_MSC_RDPS_Snow-Accum_Sfc_RLatLon0.09_PT034H.grib2 2026-04-27 14:50 737K
20260427T12Z_MSC_RDPS_SnowDensity_Sfc_RLatLon0.09_PT034H.grib2 2026-04-27 14:50 183K
20260427T12Z_MSC_RDPS_SnowDepth_Sfc_RLatLon0.09_PT034H.grib2 2026-04-27 14:50 705K
20260427T12Z_MSC_RDPS_SoilTemp_DBS-0to10cm_RLatLon0.09_PT034H.grib2 2026-04-27 14:50 237K
20260427T12Z_MSC_RDPS_SoilTemp_Sfc_RLatLon0.09_PT034H.grib2 2026-04-27 14:50 290K
20260427T12Z_MSC_RDPS_SoilVolumetricIceContent_Sfc_RLatLon0.09_PT034H.grib2 2026-04-27 14:50 167K
20260427T12Z_MSC_RDPS_SoilVolumetricWaterContent_DBS-0to10cm_RLatLon0.09_PT034H.grib2 2026-04-27 14:50 262K
20260427T12Z_MSC_RDPS_SoilVolumetricWaterContent_DBS-0to1cm_RLatLon0.09_PT034H.grib2 2026-04-27 14:50 336K
20260427T12Z_MSC_RDPS_SpecificHumidity_AGL-120m_RLatLon0.09_PT034H.grib2 2026-04-27 14:50 491K
20260427T12Z_MSC_RDPS_SpecificHumidity_AGL-2m_RLatLon0.09_PT034H.grib2 2026-04-27 14:50 659K
20260427T12Z_MSC_RDPS_SpecificHumidity_AGL-40m_RLatLon0.09_PT034H.grib2 2026-04-27 14:50 496K
20260427T12Z_MSC_RDPS_SpecificHumidity_AGL-80m_RLatLon0.09_PT034H.grib2 2026-04-27 14:50 492K
20260427T12Z_MSC_RDPS_SpecificHumidity_IsbL-0001_RLatLon0.09_PT034H.grib2 2026-04-27 14:50 347K
20260427T12Z_MSC_RDPS_SpecificHumidity_IsbL-0005_RLatLon0.09_PT034H.grib2 2026-04-27 14:50 358K
20260427T12Z_MSC_RDPS_SpecificHumidity_IsbL-0010_RLatLon0.09_PT034H.grib2 2026-04-27 14:50 400K
20260427T12Z_MSC_RDPS_SpecificHumidity_IsbL-0020_RLatLon0.09_PT034H.grib2 2026-04-27 14:50 391K
20260427T12Z_MSC_RDPS_SpecificHumidity_IsbL-0030_RLatLon0.09_PT034H.grib2 2026-04-27 14:50 480K
20260427T12Z_MSC_RDPS_SpecificHumidity_IsbL-0050_RLatLon0.09_PT034H.grib2 2026-04-27 14:50 464K
20260427T12Z_MSC_RDPS_SpecificHumidity_IsbL-0100_RLatLon0.09_PT034H.grib2 2026-04-27 14:50 354K
20260427T12Z_MSC_RDPS_SpecificHumidity_IsbL-0150_RLatLon0.09_PT034H.grib2 2026-04-27 14:50 366K
20260427T12Z_MSC_RDPS_SpecificHumidity_IsbL-0175_RLatLon0.09_PT034H.grib2 2026-04-27 14:50 452K
20260427T12Z_MSC_RDPS_SpecificHumidity_IsbL-0200_RLatLon0.09_PT034H.grib2 2026-04-27 14:50 463K
20260427T12Z_MSC_RDPS_SpecificHumidity_IsbL-0225_RLatLon0.09_PT034H.grib2 2026-04-27 14:50 467K
20260427T12Z_MSC_RDPS_SpecificHumidity_IsbL-0250_RLatLon0.09_PT034H.grib2 2026-04-27 14:50 569K
20260427T12Z_MSC_RDPS_SpecificHumidity_IsbL-0275_RLatLon0.09_PT034H.grib2 2026-04-27 14:50 483K
20260427T12Z_MSC_RDPS_SpecificHumidity_IsbL-0300_RLatLon0.09_PT034H.grib2 2026-04-27 14:50 579K
20260427T12Z_MSC_RDPS_SpecificHumidity_IsbL-0350_RLatLon0.09_PT034H.grib2 2026-04-27 14:50 549K
20260427T12Z_MSC_RDPS_SpecificHumidity_IsbL-0400_RLatLon0.09_PT034H.grib2 2026-04-27 14:50 531K
20260427T12Z_MSC_RDPS_SpecificHumidity_IsbL-0450_RLatLon0.09_PT034H.grib2 2026-04-27 14:50 585K
20260427T12Z_MSC_RDPS_SpecificHumidity_IsbL-0500_RLatLon0.09_PT034H.grib2 2026-04-27 14:50 522K
20260427T12Z_MSC_RDPS_SpecificHumidity_IsbL-0550_RLatLon0.09_PT034H.grib2 2026-04-27 14:50 595K
20260427T12Z_MSC_RDPS_SpecificHumidity_IsbL-0600_RLatLon0.09_PT034H.grib2 2026-04-27 14:50 644K
20260427T12Z_MSC_RDPS_SpecificHumidity_IsbL-0650_RLatLon0.09_PT034H.grib2 2026-04-27 14:50 561K
20260427T12Z_MSC_RDPS_SpecificHumidity_IsbL-0700_RLatLon0.09_PT034H.grib2 2026-04-27 14:50 605K
20260427T12Z_MSC_RDPS_SpecificHumidity_IsbL-0750_RLatLon0.09_PT034H.grib2 2026-04-27 14:50 661K
20260427T12Z_MSC_RDPS_SpecificHumidity_IsbL-0800_RLatLon0.09_PT034H.grib2 2026-04-27 14:50 740K
20260427T12Z_MSC_RDPS_SpecificHumidity_IsbL-0850_RLatLon0.09_PT034H.grib2 2026-04-27 14:50 810K
20260427T12Z_MSC_RDPS_SpecificHumidity_IsbL-0875_RLatLon0.09_PT034H.grib2 2026-04-27 14:50 696K
20260427T12Z_MSC_RDPS_SpecificHumidity_IsbL-0900_RLatLon0.09_PT034H.grib2 2026-04-27 14:50 706K
20260427T12Z_MSC_RDPS_SpecificHumidity_IsbL-0925_RLatLon0.09_PT034H.grib2 2026-04-27 14:50 709K
20260427T12Z_MSC_RDPS_SpecificHumidity_IsbL-0950_RLatLon0.09_PT034H.grib2 2026-04-27 14:50 707K
20260427T12Z_MSC_RDPS_SpecificHumidity_IsbL-0970_RLatLon0.09_PT034H.grib2 2026-04-27 14:50 696K
20260427T12Z_MSC_RDPS_SpecificHumidity_IsbL-0985_RLatLon0.09_PT034H.grib2 2026-04-27 14:50 688K
20260427T12Z_MSC_RDPS_SpecificHumidity_IsbL-1000_RLatLon0.09_PT034H.grib2 2026-04-27 14:50 682K
20260427T12Z_MSC_RDPS_SpecificHumidity_IsbL-1015_RLatLon0.09_PT034H.grib2 2026-04-27 14:50 672K
20260427T12Z_MSC_RDPS_SpecificHumidity_Sfc_RLatLon0.09_PT034H.grib2 2026-04-27 14:50 339K
20260427T12Z_MSC_RDPS_StormRelativeHelicity_EtaL-10000_RLatLon0.09_PT034H.grib2 2026-04-27 14:50 1.1M
20260427T12Z_MSC_RDPS_StormSeverityIndex_EtaL-10000_RLatLon0.09_PT034H.grib2 2026-04-27 14:50 1.1M
20260427T12Z_MSC_RDPS_Thickness_IsbL-0850to0700_RLatLon0.09_PT034H.grib2 2026-04-27 14:50 177K
20260427T12Z_MSC_RDPS_Thickness_IsbL-1000to0500_RLatLon0.09_PT034H.grib2 2026-04-27 14:50 201K
20260427T12Z_MSC_RDPS_Thickness_IsbL-1000to0850_RLatLon0.09_PT034H.grib2 2026-04-27 14:50 187K
20260427T12Z_MSC_RDPS_TotalCloudCover_Sfc_RLatLon0.09_PT034H.grib2 2026-04-27 14:50 647K
20260427T12Z_MSC_RDPS_TotalTotalsIndex_Sfc_RLatLon0.09_PT034H.grib2 2026-04-27 14:50 2.4M
20260427T12Z_MSC_RDPS_UVIndex-ClearSky_Sfc_RLatLon0.09_PT034H.grib2 2026-04-27 14:50 176K
20260427T12Z_MSC_RDPS_UVIndex_Sfc_RLatLon0.09_PT034H.grib2 2026-04-27 14:50 410K
20260427T12Z_MSC_RDPS_UpwardLongwaveRadiationFlux_NTAtm_RLatLon0.09_PT034H.grib2 2026-04-27 14:50 390K
20260427T12Z_MSC_RDPS_UpwardShortwaveRadiationFlux_NTAtm_RLatLon0.09_PT034H.grib2 2026-04-27 14:50 453K
20260427T12Z_MSC_RDPS_VerticalVelocity_IsbL-0250_RLatLon0.09_PT034H.grib2 2026-04-27 14:50 461K
20260427T12Z_MSC_RDPS_VerticalVelocity_IsbL-0500_RLatLon0.09_PT034H.grib2 2026-04-27 14:50 552K
20260427T12Z_MSC_RDPS_VerticalVelocity_IsbL-0700_RLatLon0.09_PT034H.grib2 2026-04-27 14:50 604K
20260427T12Z_MSC_RDPS_VerticalVelocity_IsbL-0850_RLatLon0.09_PT034H.grib2 2026-04-27 14:50 658K
20260427T12Z_MSC_RDPS_VerticalWindShear_EtaL-6500_RLatLon0.09_PT034H.grib2 2026-04-27 14:50 1.2M
20260427T12Z_MSC_RDPS_WindChill_Sfc_RLatLon0.09_PT034H.grib2 2026-04-27 14:50 1.1M
20260427T12Z_MSC_RDPS_WindDir_AGL-10m_RLatLon0.09_PT034H.grib2 2026-04-27 14:50 956K
20260427T12Z_MSC_RDPS_WindDir_AGL-120m_RLatLon0.09_PT034H.grib2 2026-04-27 14:50 606K
20260427T12Z_MSC_RDPS_WindDir_AGL-40m_RLatLon0.09_PT034H.grib2 2026-04-27 14:50 627K
20260427T12Z_MSC_RDPS_WindDir_AGL-80m_RLatLon0.09_PT034H.grib2 2026-04-27 14:50 615K
20260427T12Z_MSC_RDPS_WindDir_IsbL-0001_RLatLon0.09_PT034H.grib2 2026-04-27 14:50 285K
20260427T12Z_MSC_RDPS_WindDir_IsbL-0005_RLatLon0.09_PT034H.grib2 2026-04-27 14:50 349K
20260427T12Z_MSC_RDPS_WindDir_IsbL-0010_RLatLon0.09_PT034H.grib2 2026-04-27 14:50 390K
20260427T12Z_MSC_RDPS_WindDir_IsbL-0020_RLatLon0.09_PT034H.grib2 2026-04-27 14:50 422K
20260427T12Z_MSC_RDPS_WindDir_IsbL-0030_RLatLon0.09_PT034H.grib2 2026-04-27 14:50 403K
20260427T12Z_MSC_RDPS_WindDir_IsbL-0050_RLatLon0.09_PT034H.grib2 2026-04-27 14:50 416K
20260427T12Z_MSC_RDPS_WindDir_IsbL-0100_RLatLon0.09_PT034H.grib2 2026-04-27 14:50 418K
20260427T12Z_MSC_RDPS_WindDir_IsbL-0150_RLatLon0.09_PT034H.grib2 2026-04-27 14:50 416K
20260427T12Z_MSC_RDPS_WindDir_IsbL-0175_RLatLon0.09_PT034H.grib2 2026-04-27 14:50 438K
20260427T12Z_MSC_RDPS_WindDir_IsbL-0200_RLatLon0.09_PT034H.grib2 2026-04-27 14:50 452K
20260427T12Z_MSC_RDPS_WindDir_IsbL-0225_RLatLon0.09_PT034H.grib2 2026-04-27 14:50 452K
20260427T12Z_MSC_RDPS_WindDir_IsbL-0250_RLatLon0.09_PT034H.grib2 2026-04-27 14:50 457K
20260427T12Z_MSC_RDPS_WindDir_IsbL-0275_RLatLon0.09_PT034H.grib2 2026-04-27 14:50 476K
20260427T12Z_MSC_RDPS_WindDir_IsbL-0300_RLatLon0.09_PT034H.grib2 2026-04-27 14:50 473K
20260427T12Z_MSC_RDPS_WindDir_IsbL-0350_RLatLon0.09_PT034H.grib2 2026-04-27 14:50 494K
20260427T12Z_MSC_RDPS_WindDir_IsbL-0400_RLatLon0.09_PT034H.grib2 2026-04-27 14:50 513K
20260427T12Z_MSC_RDPS_WindDir_IsbL-0450_RLatLon0.09_PT034H.grib2 2026-04-27 14:50 529K
20260427T12Z_MSC_RDPS_WindDir_IsbL-0500_RLatLon0.09_PT034H.grib2 2026-04-27 14:50 544K
20260427T12Z_MSC_RDPS_WindDir_IsbL-0550_RLatLon0.09_PT034H.grib2 2026-04-27 14:50 560K
20260427T12Z_MSC_RDPS_WindDir_IsbL-0600_RLatLon0.09_PT034H.grib2 2026-04-27 14:50 586K
20260427T12Z_MSC_RDPS_WindDir_IsbL-0650_RLatLon0.09_PT034H.grib2 2026-04-27 14:50 626K
20260427T12Z_MSC_RDPS_WindDir_IsbL-0700_RLatLon0.09_PT034H.grib2 2026-04-27 14:50 667K
20260427T12Z_MSC_RDPS_WindDir_IsbL-0750_RLatLon0.09_PT034H.grib2 2026-04-27 14:50 717K
20260427T12Z_MSC_RDPS_WindDir_IsbL-0800_RLatLon0.09_PT034H.grib2 2026-04-27 14:50 784K
20260427T12Z_MSC_RDPS_WindDir_IsbL-0850_RLatLon0.09_PT034H.grib2 2026-04-27 14:50 856K
20260427T12Z_MSC_RDPS_WindDir_IsbL-0875_RLatLon0.09_PT034H.grib2 2026-04-27 14:50 883K
20260427T12Z_MSC_RDPS_WindDir_IsbL-0900_RLatLon0.09_PT034H.grib2 2026-04-27 14:50 900K
20260427T12Z_MSC_RDPS_WindDir_IsbL-0925_RLatLon0.09_PT034H.grib2 2026-04-27 14:50 907K
20260427T12Z_MSC_RDPS_WindDir_IsbL-0950_RLatLon0.09_PT034H.grib2 2026-04-27 14:50 907K
20260427T12Z_MSC_RDPS_WindDir_IsbL-0970_RLatLon0.09_PT034H.grib2 2026-04-27 14:50 915K
20260427T12Z_MSC_RDPS_WindDir_IsbL-0985_RLatLon0.09_PT034H.grib2 2026-04-27 14:50 923K
20260427T12Z_MSC_RDPS_WindDir_IsbL-1000_RLatLon0.09_PT034H.grib2 2026-04-27 14:50 934K
20260427T12Z_MSC_RDPS_WindDir_IsbL-1015_RLatLon0.09_PT034H.grib2 2026-04-27 14:50 949K
20260427T12Z_MSC_RDPS_WindGust-Max_AGL-10m_RLatLon0.09_PT034H.grib2 2026-04-27 14:50 1.0M
20260427T12Z_MSC_RDPS_WindGust-Min_AGL-10m_RLatLon0.09_PT034H.grib2 2026-04-27 14:50 1.0M
20260427T12Z_MSC_RDPS_WindGust_AGL-10m_RLatLon0.09_PT034H.grib2 2026-04-27 14:50 1.0M
20260427T12Z_MSC_RDPS_WindSpeed_AGL-10m_RLatLon0.09_PT034H.grib2 2026-04-27 14:50 837K
20260427T12Z_MSC_RDPS_WindSpeed_AGL-120m_RLatLon0.09_PT034H.grib2 2026-04-27 14:50 544K
20260427T12Z_MSC_RDPS_WindSpeed_AGL-40m_RLatLon0.09_PT034H.grib2 2026-04-27 14:50 538K
20260427T12Z_MSC_RDPS_WindSpeed_AGL-80m_RLatLon0.09_PT034H.grib2 2026-04-27 14:50 545K
20260427T12Z_MSC_RDPS_WindSpeed_IsbL-0001_RLatLon0.09_PT034H.grib2 2026-04-27 14:50 257K
20260427T12Z_MSC_RDPS_WindSpeed_IsbL-0005_RLatLon0.09_PT034H.grib2 2026-04-27 14:50 300K
20260427T12Z_MSC_RDPS_WindSpeed_IsbL-0010_RLatLon0.09_PT034H.grib2 2026-04-27 14:50 314K
20260427T12Z_MSC_RDPS_WindSpeed_IsbL-0020_RLatLon0.09_PT034H.grib2 2026-04-27 14:50 332K
20260427T12Z_MSC_RDPS_WindSpeed_IsbL-0030_RLatLon0.09_PT034H.grib2 2026-04-27 14:50 324K
20260427T12Z_MSC_RDPS_WindSpeed_IsbL-0050_RLatLon0.09_PT034H.grib2 2026-04-27 14:50 355K
20260427T12Z_MSC_RDPS_WindSpeed_IsbL-0100_RLatLon0.09_PT034H.grib2 2026-04-27 14:50 453K
20260427T12Z_MSC_RDPS_WindSpeed_IsbL-0150_RLatLon0.09_PT034H.grib2 2026-04-27 14:50 393K
20260427T12Z_MSC_RDPS_WindSpeed_IsbL-0175_RLatLon0.09_PT034H.grib2 2026-04-27 14:50 441K
20260427T12Z_MSC_RDPS_WindSpeed_IsbL-0200_RLatLon0.09_PT034H.grib2 2026-04-27 14:50 459K
20260427T12Z_MSC_RDPS_WindSpeed_IsbL-0225_RLatLon0.09_PT034H.grib2 2026-04-27 14:50 465K
20260427T12Z_MSC_RDPS_WindSpeed_IsbL-0250_RLatLon0.09_PT034H.grib2 2026-04-27 14:50 467K
20260427T12Z_MSC_RDPS_WindSpeed_IsbL-0275_RLatLon0.09_PT034H.grib2 2026-04-27 14:50 486K
20260427T12Z_MSC_RDPS_WindSpeed_IsbL-0300_RLatLon0.09_PT034H.grib2 2026-04-27 14:50 484K
20260427T12Z_MSC_RDPS_WindSpeed_IsbL-0350_RLatLon0.09_PT034H.grib2 2026-04-27 14:50 490K
20260427T12Z_MSC_RDPS_WindSpeed_IsbL-0400_RLatLon0.09_PT034H.grib2 2026-04-27 14:50 473K
20260427T12Z_MSC_RDPS_WindSpeed_IsbL-0450_RLatLon0.09_PT034H.grib2 2026-04-27 14:50 472K
20260427T12Z_MSC_RDPS_WindSpeed_IsbL-0500_RLatLon0.09_PT034H.grib2 2026-04-27 14:50 471K
20260427T12Z_MSC_RDPS_WindSpeed_IsbL-0550_RLatLon0.09_PT034H.grib2 2026-04-27 14:50 590K
20260427T12Z_MSC_RDPS_WindSpeed_IsbL-0600_RLatLon0.09_PT034H.grib2 2026-04-27 14:50 598K
20260427T12Z_MSC_RDPS_WindSpeed_IsbL-0650_RLatLon0.09_PT034H.grib2 2026-04-27 14:50 617K
20260427T12Z_MSC_RDPS_WindSpeed_IsbL-0700_RLatLon0.09_PT034H.grib2 2026-04-27 14:50 681K
20260427T12Z_MSC_RDPS_WindSpeed_IsbL-0750_RLatLon0.09_PT034H.grib2 2026-04-27 14:50 710K
20260427T12Z_MSC_RDPS_WindSpeed_IsbL-0800_RLatLon0.09_PT034H.grib2 2026-04-27 14:50 756K
20260427T12Z_MSC_RDPS_WindSpeed_IsbL-0850_RLatLon0.09_PT034H.grib2 2026-04-27 14:50 766K
20260427T12Z_MSC_RDPS_WindSpeed_IsbL-0875_RLatLon0.09_PT034H.grib2 2026-04-27 14:50 832K
20260427T12Z_MSC_RDPS_WindSpeed_IsbL-0900_RLatLon0.09_PT034H.grib2 2026-04-27 14:50 801K
20260427T12Z_MSC_RDPS_WindSpeed_IsbL-0925_RLatLon0.09_PT034H.grib2 2026-04-27 14:50 857K
20260427T12Z_MSC_RDPS_WindSpeed_IsbL-0950_RLatLon0.09_PT034H.grib2 2026-04-27 14:50 857K
20260427T12Z_MSC_RDPS_WindSpeed_IsbL-0970_RLatLon0.09_PT034H.grib2 2026-04-27 14:50 858K
20260427T12Z_MSC_RDPS_WindSpeed_IsbL-0985_RLatLon0.09_PT034H.grib2 2026-04-27 14:50 853K
20260427T12Z_MSC_RDPS_WindSpeed_IsbL-1000_RLatLon0.09_PT034H.grib2 2026-04-27 14:50 848K
20260427T12Z_MSC_RDPS_WindSpeed_IsbL-1015_RLatLon0.09_PT034H.grib2 2026-04-27 14:50 839K
20260427T12Z_MSC_RDPS_WindU_AGL-10m_RLatLon0.09_PT034H.grib2 2026-04-27 14:50 433K
20260427T12Z_MSC_RDPS_WindU_AGL-120m_RLatLon0.09_PT034H.grib2 2026-04-27 14:50 415K
20260427T12Z_MSC_RDPS_WindU_AGL-40m_RLatLon0.09_PT034H.grib2 2026-04-27 14:50 419K
20260427T12Z_MSC_RDPS_WindU_AGL-80m_RLatLon0.09_PT034H.grib2 2026-04-27 14:50 417K
20260427T12Z_MSC_RDPS_WindU_IsbL-0001_RLatLon0.09_PT034H.grib2 2026-04-27 14:50 297K
20260427T12Z_MSC_RDPS_WindU_IsbL-0005_RLatLon0.09_PT034H.grib2 2026-04-27 14:50 336K
20260427T12Z_MSC_RDPS_WindU_IsbL-0010_RLatLon0.09_PT034H.grib2 2026-04-27 14:50 304K
20260427T12Z_MSC_RDPS_WindU_IsbL-0020_RLatLon0.09_PT034H.grib2 2026-04-27 14:50 360K
20260427T12Z_MSC_RDPS_WindU_IsbL-0030_RLatLon0.09_PT034H.grib2 2026-04-27 14:50 355K
20260427T12Z_MSC_RDPS_WindU_IsbL-0050_RLatLon0.09_PT034H.grib2 2026-04-27 14:50 381K
20260427T12Z_MSC_RDPS_WindU_IsbL-0100_RLatLon0.09_PT034H.grib2 2026-04-27 14:50 347K
20260427T12Z_MSC_RDPS_WindU_IsbL-0150_RLatLon0.09_PT034H.grib2 2026-04-27 14:50 410K
20260427T12Z_MSC_RDPS_WindU_IsbL-0175_RLatLon0.09_PT034H.grib2 2026-04-27 14:50 435K
20260427T12Z_MSC_RDPS_WindU_IsbL-0200_RLatLon0.09_PT034H.grib2 2026-04-27 14:50 351K
20260427T12Z_MSC_RDPS_WindU_IsbL-0225_RLatLon0.09_PT034H.grib2 2026-04-27 14:50 354K
20260427T12Z_MSC_RDPS_WindU_IsbL-0250_RLatLon0.09_PT034H.grib2 2026-04-27 14:50 355K
20260427T12Z_MSC_RDPS_WindU_IsbL-0275_RLatLon0.09_PT034H.grib2 2026-04-27 14:50 372K
20260427T12Z_MSC_RDPS_WindU_IsbL-0300_RLatLon0.09_PT034H.grib2 2026-04-27 14:50 368K
20260427T12Z_MSC_RDPS_WindU_IsbL-0350_RLatLon0.09_PT034H.grib2 2026-04-27 14:50 476K
20260427T12Z_MSC_RDPS_WindU_IsbL-0400_RLatLon0.09_PT034H.grib2 2026-04-27 14:50 476K
20260427T12Z_MSC_RDPS_WindU_IsbL-0450_RLatLon0.09_PT034H.grib2 2026-04-27 14:50 475K
20260427T12Z_MSC_RDPS_WindU_IsbL-0500_RLatLon0.09_PT034H.grib2 2026-04-27 14:50 476K
20260427T12Z_MSC_RDPS_WindU_IsbL-0550_RLatLon0.09_PT034H.grib2 2026-04-27 14:50 460K
20260427T12Z_MSC_RDPS_WindU_IsbL-0600_RLatLon0.09_PT034H.grib2 2026-04-27 14:50 469K
20260427T12Z_MSC_RDPS_WindU_IsbL-0650_RLatLon0.09_PT034H.grib2 2026-04-27 14:50 487K
20260427T12Z_MSC_RDPS_WindU_IsbL-0700_RLatLon0.09_PT034H.grib2 2026-04-27 14:50 507K
20260427T12Z_MSC_RDPS_WindU_IsbL-0750_RLatLon0.09_PT034H.grib2 2026-04-27 14:50 533K
20260427T12Z_MSC_RDPS_WindU_IsbL-0800_RLatLon0.09_PT034H.grib2 2026-04-27 14:50 574K
20260427T12Z_MSC_RDPS_WindU_IsbL-0850_RLatLon0.09_PT034H.grib2 2026-04-27 14:50 622K
20260427T12Z_MSC_RDPS_WindU_IsbL-0875_RLatLon0.09_PT034H.grib2 2026-04-27 14:50 647K
20260427T12Z_MSC_RDPS_WindU_IsbL-0900_RLatLon0.09_PT034H.grib2 2026-04-27 14:50 658K
20260427T12Z_MSC_RDPS_WindU_IsbL-0925_RLatLon0.09_PT034H.grib2 2026-04-27 14:50 663K
20260427T12Z_MSC_RDPS_WindU_IsbL-0950_RLatLon0.09_PT034H.grib2 2026-04-27 14:50 654K
20260427T12Z_MSC_RDPS_WindU_IsbL-0970_RLatLon0.09_PT034H.grib2 2026-04-27 14:50 653K
20260427T12Z_MSC_RDPS_WindU_IsbL-0985_RLatLon0.09_PT034H.grib2 2026-04-27 14:50 652K
20260427T12Z_MSC_RDPS_WindU_IsbL-1000_RLatLon0.09_PT034H.grib2 2026-04-27 14:50 648K
20260427T12Z_MSC_RDPS_WindU_IsbL-1015_RLatLon0.09_PT034H.grib2 2026-04-27 14:50 780K
20260427T12Z_MSC_RDPS_WindV_AGL-10m_RLatLon0.09_PT034H.grib2 2026-04-27 14:50 432K
20260427T12Z_MSC_RDPS_WindV_AGL-120m_RLatLon0.09_PT034H.grib2 2026-04-27 14:50 530K
20260427T12Z_MSC_RDPS_WindV_AGL-40m_RLatLon0.09_PT034H.grib2 2026-04-27 14:50 534K
20260427T12Z_MSC_RDPS_WindV_AGL-80m_RLatLon0.09_PT034H.grib2 2026-04-27 14:50 532K
20260427T12Z_MSC_RDPS_WindV_IsbL-0001_RLatLon0.09_PT034H.grib2 2026-04-27 14:50 247K
20260427T12Z_MSC_RDPS_WindV_IsbL-0005_RLatLon0.09_PT034H.grib2 2026-04-27 14:50 292K
20260427T12Z_MSC_RDPS_WindV_IsbL-0010_RLatLon0.09_PT034H.grib2 2026-04-27 14:50 306K
20260427T12Z_MSC_RDPS_WindV_IsbL-0020_RLatLon0.09_PT034H.grib2 2026-04-27 14:50 323K
20260427T12Z_MSC_RDPS_WindV_IsbL-0030_RLatLon0.09_PT034H.grib2 2026-04-27 14:50 320K
20260427T12Z_MSC_RDPS_WindV_IsbL-0050_RLatLon0.09_PT034H.grib2 2026-04-27 14:50 349K
20260427T12Z_MSC_RDPS_WindV_IsbL-0100_RLatLon0.09_PT034H.grib2 2026-04-27 14:50 438K
20260427T12Z_MSC_RDPS_WindV_IsbL-0150_RLatLon0.09_PT034H.grib2 2026-04-27 14:50 407K
20260427T12Z_MSC_RDPS_WindV_IsbL-0175_RLatLon0.09_PT034H.grib2 2026-04-27 14:50 433K
20260427T12Z_MSC_RDPS_WindV_IsbL-0200_RLatLon0.09_PT034H.grib2 2026-04-27 14:50 348K
20260427T12Z_MSC_RDPS_WindV_IsbL-0225_RLatLon0.09_PT034H.grib2 2026-04-27 14:50 352K
20260427T12Z_MSC_RDPS_WindV_IsbL-0250_RLatLon0.09_PT034H.grib2 2026-04-27 14:50 352K
20260427T12Z_MSC_RDPS_WindV_IsbL-0275_RLatLon0.09_PT034H.grib2 2026-04-27 14:50 366K
20260427T12Z_MSC_RDPS_WindV_IsbL-0300_RLatLon0.09_PT034H.grib2 2026-04-27 14:50 365K
20260427T12Z_MSC_RDPS_WindV_IsbL-0350_RLatLon0.09_PT034H.grib2 2026-04-27 14:50 370K
20260427T12Z_MSC_RDPS_WindV_IsbL-0400_RLatLon0.09_PT034H.grib2 2026-04-27 14:50 370K
20260427T12Z_MSC_RDPS_WindV_IsbL-0450_RLatLon0.09_PT034H.grib2 2026-04-27 14:50 474K
20260427T12Z_MSC_RDPS_WindV_IsbL-0500_RLatLon0.09_PT034H.grib2 2026-04-27 14:50 472K
20260427T12Z_MSC_RDPS_WindV_IsbL-0550_RLatLon0.09_PT034H.grib2 2026-04-27 14:50 475K
20260427T12Z_MSC_RDPS_WindV_IsbL-0600_RLatLon0.09_PT034H.grib2 2026-04-27 14:50 483K
20260427T12Z_MSC_RDPS_WindV_IsbL-0650_RLatLon0.09_PT034H.grib2 2026-04-27 14:50 499K
20260427T12Z_MSC_RDPS_WindV_IsbL-0700_RLatLon0.09_PT034H.grib2 2026-04-27 14:50 517K
20260427T12Z_MSC_RDPS_WindV_IsbL-0750_RLatLon0.09_PT034H.grib2 2026-04-27 14:50 541K
20260427T12Z_MSC_RDPS_WindV_IsbL-0800_RLatLon0.09_PT034H.grib2 2026-04-27 14:50 578K
20260427T12Z_MSC_RDPS_WindV_IsbL-0850_RLatLon0.09_PT034H.grib2 2026-04-27 14:50 624K
20260427T12Z_MSC_RDPS_WindV_IsbL-0875_RLatLon0.09_PT034H.grib2 2026-04-27 14:50 642K
20260427T12Z_MSC_RDPS_WindV_IsbL-0900_RLatLon0.09_PT034H.grib2 2026-04-27 14:50 654K
20260427T12Z_MSC_RDPS_WindV_IsbL-0925_RLatLon0.09_PT034H.grib2 2026-04-27 14:50 654K
20260427T12Z_MSC_RDPS_WindV_IsbL-0950_RLatLon0.09_PT034H.grib2 2026-04-27 14:50 653K
20260427T12Z_MSC_RDPS_WindV_IsbL-0970_RLatLon0.09_PT034H.grib2 2026-04-27 14:50 652K
20260427T12Z_MSC_RDPS_WindV_IsbL-0985_RLatLon0.09_PT034H.grib2 2026-04-27 14:50 789K
20260427T12Z_MSC_RDPS_WindV_IsbL-1000_RLatLon0.09_PT034H.grib2 2026-04-27 14:50 785K
20260427T12Z_MSC_RDPS_WindV_IsbL-1015_RLatLon0.09_PT034H.grib2 2026-04-27 14:50 825K